Weather History for Rockingham, NC

Change the Weather History Date:

Tuesday, September 18, 2012

  Actual Average (KHFF) Record (KHFF)
Temperature  
Mean Temperature 74 °F -  
Max Temperature 93 °F 78 °F 89 °F (2010)
Min Temperature 70 °F 61 °F 50 °F (2013)
Cooling Degree Days 10    
Growing Degree Days 24 (Base 50)    
Moisture  
Dew Point 72 °F    
Average Humidity 91    
Maximum Humidity 97    
Minimum Humidity 81    
Precipitation  
Precipitation 0.59 in - - ()
Sea Level Pressure  
Sea Level Pressure 29.81 in    
Wind  
Wind Speed 10 mph (South)    
Max Wind Speed 17 mph    
Max Gust Speed 32 mph    
Visibility 10 miles    
Events Rain    
Averages and records for this station are not official NWS values.
T = Trace of Precipitation, MM = Missing Value Source: NWS Daily Summary

Daily Weather History Graph

Daily Weather History Graph

Search for Another Location

Airport:

Trip Planner

Search our weather history database for the weather conditions in past years. The results will help you decide how hot, cold, wet, or windy it might be!

Date:

Astronomy

Sep. 18, 2012 Rise Set
Actual Time 7:04 AM EDT 7:20 PM EDT
Civil Twilight 6:39 AM EDT 7:46 PM EDT
Nautical Twilight 6:09 AM EDT 8:15 PM EDT
Astronomical Twilight 5:39 AM EDT 8:45 PM EDT
Moon 9:52 AM EDT (9/18) 8:53 PM EDT (9/18)
Length of Visible Light 13h 06m
Length of Day
12h 16m
Waxing Crescent, 9% of the Moon is Illuminated
Sep 18
Waxing Crescent
Sep 22
First Quarter
Sep 29
Full
Oct 8
Last Quarter
Oct 15
New

Hourly Weather History & Observations

Time (EDT) Temp. Dew Point Humidity Pressure Visibility Wind Dir Wind Speed Gust Speed Precip Events Conditions
12:15 AM 73.4 °F 70.7 °F 91% 29.93 in 10.0 mi SSE 11.5 mph - N/A   Clear
12:35 AM 73.4 °F 70.7 °F 91% 29.93 in 10.0 mi SSE 10.4 mph - N/A   Clear
12:55 AM 73.0 °F 70.7 °F 92% 29.92 in 10.0 mi SSE 8.1 mph - N/A   Clear
1:15 AM 72.9 °F 70.7 °F 93% 29.92 in 10.0 mi SSE 9.2 mph - N/A   Clear
1:35 AM 73.2 °F 71.1 °F 93% 29.91 in 10.0 mi SSE 11.5 mph - N/A   Scattered Clouds
1:55 AM 73.4 °F 71.6 °F 94% 29.91 in 10.0 mi South 9.2 mph 16.1 mph N/A   Scattered Clouds
2:15 AM 73.6 °F 71.6 °F 93% 29.90 in 10.0 mi South 11.5 mph - N/A   Scattered Clouds
2:35 AM 73.6 °F 71.8 °F 94% 29.90 in 10.0 mi SSE 12.7 mph - N/A   Scattered Clouds
2:55 AM 73.8 °F 72.0 °F 94% 29.89 in 10.0 mi South 9.2 mph 16.1 mph N/A   Mostly Cloudy
3:15 AM 73.8 °F 72.0 °F 94% 29.88 in 10.0 mi South 9.2 mph 16.1 mph N/A   Overcast
3:35 AM 73.8 °F 72.0 °F 94% 29.87 in 10.0 mi SSE 11.5 mph - N/A   Overcast
3:55 AM 73.8 °F 72.0 °F 94% 29.86 in 10.0 mi South 12.7 mph 19.6 mph N/A   Overcast
4:15 AM 73.9 °F 72.5 °F 95% 29.85 in 10.0 mi South 12.7 mph - N/A   Overcast
4:35 AM 74.1 °F 72.5 °F 95% 29.84 in 10.0 mi SSE 10.4 mph 19.6 mph N/A   Overcast
4:55 AM 74.5 °F 72.5 °F 94% 29.84 in 10.0 mi SSE 13.8 mph 20.7 mph N/A   Overcast
5:15 AM 74.7 °F 72.5 °F 93% 29.83 in 10.0 mi SSE 13.8 mph 20.7 mph N/A   Overcast
5:35 AM 74.8 °F 72.7 °F 93% 29.83 in 10.0 mi SSE 13.8 mph 17.3 mph N/A   Overcast
6:15 AM 74.8 °F 72.5 °F 92% 29.83 in 10.0 mi South 13.8 mph 19.6 mph N/A   Overcast
6:35 AM 74.7 °F 72.5 °F 93% 29.83 in 10.0 mi SSE 12.7 mph - N/A   Overcast
6:55 AM 74.8 °F 72.5 °F 92% 29.81 in 10.0 mi South 13.8 mph 21.9 mph N/A   Overcast
7:15 AM 75.0 °F 72.5 °F 92% 29.81 in 10.0 mi South 13.8 mph 21.9 mph N/A   Overcast
7:35 AM 75.0 °F 72.7 °F 92% 29.81 in 10.0 mi South 12.7 mph 20.7 mph N/A Rain Light Rain
7:55 AM 74.8 °F 73.0 °F 94% 29.81 in 10.0 mi South 15.0 mph 20.7 mph N/A   Overcast
8:15 AM 75.2 °F 73.2 °F 94% 29.81 in 10.0 mi SSE 15.0 mph 24.2 mph N/A   Overcast
8:35 AM 75.4 °F 73.2 °F 93% 29.81 in 10.0 mi SSE 16.1 mph 20.7 mph N/A   Overcast
8:55 AM 75.6 °F 73.4 °F 93% 29.81 in 10.0 mi SSE 17.3 mph 24.2 mph N/A   Light Drizzle
9:15 AM 76.1 °F 73.4 °F 91% 29.81 in 10.0 mi South 17.3 mph 23.0 mph N/A   Overcast
9:35 AM 77.0 °F 73.8 °F 90% 29.81 in 10.0 mi South 12.7 mph 23.0 mph N/A   Mostly Cloudy
10:55 AM 76.5 °F 73.4 °F 90% 29.80 in 7.0 mi South 17.3 mph 25.3 mph N/A Rain Light Rain
11:15 AM 76.6 °F 73.6 °F 90% 29.80 in 10.0 mi South 12.7 mph 23.0 mph N/A   Mostly Cloudy
11:35 AM 78.6 °F 73.4 °F 84% 29.79 in 10.0 mi South 11.5 mph 19.6 mph N/A   Mostly Cloudy
11:55 AM 79.5 °F 73.4 °F 81% 29.80 in 10.0 mi South 13.8 mph 20.7 mph N/A   Overcast
12:15 PM 79.2 °F 73.8 °F 83% 29.79 in 10.0 mi South 10.4 mph 16.1 mph N/A   Overcast
12:35 PM 79.7 °F 74.1 °F 83% 29.77 in 10.0 mi South 8.1 mph - N/A   Overcast
12:55 PM 78.4 °F 75.0 °F 89% 29.77 in 7.0 mi South 10.4 mph 17.3 mph 0.01 in Rain Light Rain
1:15 PM 77.2 °F 75.4 °F 94% 29.77 in 10.0 mi South 11.5 mph - N/A   Mostly Cloudy
1:35 PM 75.9 °F 73.9 °F 94% 29.77 in 1.2 mi SW 15.0 mph 32.2 mph 0.36 in Rain Heavy Rain
1:55 PM 74.1 °F 72.9 °F 96% 29.77 in 7.0 mi SSW 8.1 mph - 0.57 in Rain Light Rain
2:15 PM 75.0 °F 73.6 °F 95% 29.76 in 10.0 mi SSW 8.1 mph 16.1 mph 0.01 in Rain Light Rain
2:35 PM 76.1 °F 74.7 °F 95% 29.75 in 10.0 mi South 9.2 mph - 0.01 in   Mostly Cloudy
3:15 PM 77.9 °F 75.2 °F 91% 29.75 in 10.0 mi SW 9.2 mph - N/A   Scattered Clouds
3:35 PM 78.3 °F 74.5 °F 88% 29.75 in 10.0 mi SW 8.1 mph - N/A Rain Light Rain
3:55 PM 78.1 °F 74.5 °F 89% 29.75 in 10.0 mi SW 8.1 mph - N/A Rain Light Rain
4:15 PM 78.8 °F 74.1 °F 85% 29.75 in 10.0 mi SW 8.1 mph - N/A   Clear
4:35 PM 78.8 °F 73.8 °F 84% 29.75 in 10.0 mi SSW 5.8 mph - N/A   Scattered Clouds
4:55 PM 78.8 °F 73.4 °F 83% 29.75 in 10.0 mi SSW 10.4 mph - N/A   Mostly Cloudy
5:15 PM 78.3 °F 72.9 °F 83% 29.75 in 10.0 mi Calm Calm - N/A   Mostly Cloudy
5:35 PM 77.7 °F 73.4 °F 86% 29.75 in 10.0 mi South 3.5 mph - N/A   Overcast
5:55 PM 77.5 °F 73.4 °F 87% 29.75 in 10.0 mi SSW 3.5 mph - N/A   Overcast
6:15 PM 77.4 °F 73.4 °F 88% 29.75 in 10.0 mi SSW 3.5 mph - N/A   Mostly Cloudy
6:35 PM 77.2 °F 73.4 °F 88% 29.76 in 10.0 mi Calm Calm - N/A   Scattered Clouds
6:55 PM 76.8 °F 73.4 °F 89% 29.76 in 10.0 mi SE 5.8 mph - N/A   Scattered Clouds
7:15 PM 76.1 °F 73.4 °F 91% 29.77 in 10.0 mi South 5.8 mph - N/A   Clear
7:35 PM 75.2 °F 72.7 °F 92% 29.77 in 10.0 mi South 5.8 mph - N/A   Clear
7:55 PM 74.5 °F 71.8 °F 91% 29.77 in 10.0 mi South 5.8 mph - N/A   Mostly Cloudy
8:15 PM 74.3 °F 71.2 °F 90% 29.77 in 10.0 mi South 6.9 mph - N/A   Overcast
8:35 PM 73.9 °F 70.5 °F 89% 29.77 in 10.0 mi South 5.8 mph - N/A   Mostly Cloudy
8:55 PM 73.6 °F 70.2 °F 89% 29.79 in 10.0 mi SSW 4.6 mph - N/A   Mostly Cloudy
9:15 PM 73.2 °F 70.0 °F 90% 29.79 in 10.0 mi SSW 6.9 mph - N/A   Overcast
9:35 PM 72.7 °F 69.8 °F 91% 29.79 in 10.0 mi SSW 5.8 mph - N/A   Mostly Cloudy
9:55 PM 72.1 °F 69.8 °F 92% 29.80 in 10.0 mi SSW 3.5 mph - N/A   Scattered Clouds
10:15 PM 71.6 °F 69.4 °F 93% 29.80 in 10.0 mi SSW 3.5 mph - N/A   Clear
10:35 PM 71.2 °F 69.3 °F 93% 29.81 in 10.0 mi SSW 5.8 mph - N/A   Clear
10:55 PM 70.9 °F 69.3 °F 95% 29.82 in 10.0 mi SSW 5.8 mph - N/A   Clear
11:15 PM 70.7 °F 69.3 °F 95% 29.82 in 10.0 mi SSW 5.8 mph - N/A   Clear
11:35 PM 70.5 °F 69.3 °F 96% 29.84 in 10.0 mi SW 3.5 mph - N/A   Scattered Clouds
11:55 PM 70.3 °F 69.4 °F 97% 29.85 in 10.0 mi Calm Calm - N/A   Mostly Cloudy